Time,TemperatureF,DewpointF,PressureIn,WindDirection,WindDirectionDegrees,WindSpeedMPH,WindSpeedGustMPH,Humidity,HourlyPrecipIn,Conditions,Clouds,dailyrainin,SoftwareType,DateUTC
2013-04-05 00:00:00,41.4,23.7,30.11,South,184,0.0,0.0,49,0.00,,,0.00,WeatherCatV1.02B4,2013-04-05 04:00:00,
2013-04-05 00:04:00,41.4,23.7,30.10,South,184,0.0,0.0,49,0.00,,,0.00,WeatherCatV1.02B4,2013-04-05 04:04:00,
2013-04-05 00:06:00,41.4,23.2,30.10,SSW,197,2.0,6.0,48,0.00,,,0.00,WeatherCatV1.02B4,2013-04-05 04:06:00,
2013-04-05 00:11:00,41.4,23.2,30.10,South,188,0.0,2.0,48,0.00,,,0.00,WeatherCatV1.02B4,2013-04-05 04:11:00,
2013-04-05 00:16:00,41.4,23.2,30.10,South,189,0.0,3.0,48,0.00,,,0.00,WeatherCatV1.02B4,2013-04-05 04:16:00,
2013-04-05 00:21:00,41.4,23.7,30.10,SSW,199,2.0,5.0,49,0.00,,,0.00,WeatherCatV1.02B4,2013-04-05 04:21:00,
2013-04-05 00:26:00,41.4,23.7,30.09,South,191,4.0,5.0,49,0.00,,,0.00,WeatherCatV1.02B4,2013-04-05 04:26:00,
2013-04-05 00:32:00,41.4,23.7,30.09,SSW,204,0.0,6.0,49,0.00,,,0.00,WeatherCatV1.02B4,2013-04-05 04:32:00,
2013-04-05 00:37:00,41.4,23.7,30.10,SSW,196,0.0,5.0,49,0.00,,,0.00,WeatherCatV1.02B4,2013-04-05 04:37:00,
2013-04-05 00:42:00,41.4,23.7,30.10,SSW,211,0.0,8.0,49,0.00,,,0.00,WeatherCatV1.02B4,2013-04-05 04:42:00,
2013-04-05 00:47:00,41.3,23.6,30.09,SSW,211,0.0,0.0,49,0.00,,,0.00,WeatherCatV1.02B4,2013-04-05 04:47:00,
2013-04-05 00:52:00,41.4,23.7,30.09,SSW,193,3.0,6.0,49,0.00,,,0.00,WeatherCatV1.02B4,2013-04-05 04:52:00,
2013-04-05 00:57:00,41.3,23.6,30.10,SSW,195,0.0,5.0,49,0.00,,,0.00,WeatherCatV1.02B4,2013-04-05 04:57:00,
2013-04-05 01:02:00,41.3,23.6,30.09,SSW,196,0.0,0.0,49,0.00,,,0.00,WeatherCatV1.02B4,2013-04-05 05:02:00,
2013-04-05 01:07:00,41.3,23.6,30.10,SW,216,1.0,2.0,49,0.00,,,0.00,WeatherCatV1.02B4,2013-04-05 05:07:00,
2013-04-05 01:12:00,41.3,23.6,30.08,SSW,205,0.0,4.0,49,0.00,,,0.00,WeatherCatV1.02B4,2013-04-05 05:12:00,
2013-04-05 01:17:00,41.3,23.6,30.08,SSW,205,0.0,0.0,49,0.00,,,0.00,WeatherCatV1.02B4,2013-04-05 05:17:00,
2013-04-05 01:22:00,41.3,23.6,30.08,SSW,205,0.0,4.0,49,0.00,,,0.00,WeatherCatV1.02B4,2013-04-05 05:22:00,
2013-04-05 01:27:00,41.3,23.6,30.08,SSW,199,0.0,0.0,49,0.00,,,0.00,WeatherCatV1.02B4,2013-04-05 05:27:00,
2013-04-05 01:32:00,41.3,23.6,30.07,SW,220,0.0,5.0,49,0.00,,,0.00,WeatherCatV1.02B4,2013-04-05 05:32:00,
2013-04-05 01:37:00,41.3,23.6,30.07,SSW,204,4.0,8.0,49,0.00,,,0.00,WeatherCatV1.02B4,2013-04-05 05:37:00,
2013-04-05 01:42:00,41.3,23.6,30.06,SSW,204,0.0,4.0,49,0.00,,,0.00,WeatherCatV1.02B4,2013-04-05 05:42:00,
2013-04-05 01:47:00,41.3,23.6,30.05,SSW,209,0.0,7.0,49,0.00,,,0.00,WeatherCatV1.02B4,2013-04-05 05:47:00,
2013-04-05 01:52:00,41.3,24.1,30.05,SSW,209,0.0,2.0,50,0.00,,,0.00,WeatherCatV1.02B4,2013-04-05 05:52:00,
2013-04-05 01:57:00,41.3,24.1,30.05,SSW,209,0.0,3.0,50,0.00,,,0.00,WeatherCatV1.02B4,2013-04-05 05:57:00,
2013-04-05 02:02:00,41.2,24.0,30.05,SSW,209,0.0,2.0,50,0.00,,,0.00,WeatherCatV1.02B4,2013-04-05 06:02:00,
2013-04-05 02:07:00,41.2,24.5,30.04,SW,228,0.0,0.0,51,0.00,,,0.00,WeatherCatV1.02B4,2013-04-05 06:07:00,
2013-04-05 02:12:00,41.2,24.0,30.04,SW,223,0.0,0.0,50,0.00,,,0.00,WeatherCatV1.02B4,2013-04-05 06:12:00,
2013-04-05 02:17:00,41.2,24.5,30.04,SW,220,0.0,0.0,51,0.00,,,0.00,WeatherCatV1.02B4,2013-04-05 06:17:00,
2013-04-05 02:22:00,41.2,24.5,30.04,SSW,202,2.0,3.0,51,0.00,,,0.00,WeatherCatV1.02B4,2013-04-05 06:22:00,
2013-04-05 02:27:00,41.2,24.5,30.04,South,179,5.0,8.0,51,0.00,,,0.00,WeatherCatV1.02B4,2013-04-05 06:27:00,
2013-04-05 02:32:00,41.2,24.5,30.04,South,190,4.0,6.0,51,0.00,,,0.00,WeatherCatV1.02B4,2013-04-05 06:32:00,
2013-04-05 02:37:00,41.1,24.4,30.03,South,175,2.0,3.0,51,0.00,,,0.00,WeatherCatV1.02B4,2013-04-05 06:37:00,
2013-04-05 02:42:00,41.0,24.7,30.03,SSW,196,0.0,0.0,52,0.00,,,0.00,WeatherCatV1.02B4,2013-04-05 06:42:00,
2013-04-05 02:47:00,41.0,25.2,30.03,SW,220,1.0,8.0,53,0.00,,,0.00,WeatherCatV1.02B4,2013-04-05 06:47:00,
2013-04-05 02:52:00,40.9,25.6,30.03,South,171,1.0,6.0,54,0.00,,,0.00,WeatherCatV1.02B4,2013-04-05 06:52:00,
2013-04-05 02:57:00,40.7,25.8,30.03,SSE,159,0.0,5.0,55,0.00,,,0.00,WeatherCatV1.02B4,2013-04-05 06:57:00,
2013-04-05 03:02:00,40.5,26.1,30.02,SSW,211,0.0,4.0,56,0.00,,,0.00,WeatherCatV1.02B4,2013-04-05 07:02:00,
2013-04-05 03:07:00,40.4,26.4,30.02,SSE,160,2.0,6.0,57,0.00,,,0.00,WeatherCatV1.02B4,2013-04-05 07:07:00,
2013-04-05 03:12:00,40.3,27.1,30.02,South,174,0.0,0.0,59,0.00,,,0.00,WeatherCatV1.02B4,2013-04-05 07:12:00,
2013-04-05 03:17:00,40.2,27.0,30.01,South,185,0.0,3.0,59,0.00,,,0.00,WeatherCatV1.02B4,2013-04-05 07:17:00,
2013-04-05 03:22:00,40.1,27.3,30.01,South,175,3.0,3.0,60,0.00,,,0.00,WeatherCatV1.02B4,2013-04-05 07:22:00,
2013-04-05 03:27:00,39.9,27.6,30.00,SSE,168,0.0,2.0,61,0.00,,,0.00,WeatherCatV1.02B4,2013-04-05 07:27:00,
2013-04-05 03:32:00,39.8,27.9,30.01,South,181,0.0,4.0,62,0.00,,,0.00,WeatherCatV1.02B4,2013-04-05 07:32:00,
2013-04-05 03:37:00,39.7,28.2,30.00,SE,146,1.0,7.0,63,0.00,,,0.00,WeatherCatV1.02B4,2013-04-05 07:37:00,
2013-04-05 03:42:00,39.5,28.3,30.00,SSW,212,3.0,7.0,64,0.00,,,0.00,WeatherCatV1.02B4,2013-04-05 07:42:00,
2013-04-05 03:47:00,39.3,28.5,30.01,SSW,211,0.0,4.0,65,0.00,,,0.00,WeatherCatV1.02B4,2013-04-05 07:47:00,
2013-04-05 03:52:00,39.2,28.4,30.00,SW,214,0.0,0.0,65,0.00,,,0.00,WeatherCatV1.02B4,2013-04-05 07:52:00,
2013-04-05 03:57:00,39.1,28.7,30.00,SSW,212,4.0,4.0,66,0.00,,,0.00,WeatherCatV1.02B4,2013-04-05 07:57:00,
2013-04-05 04:02:00,39.1,29.1,29.99,SSW,212,0.0,0.0,67,0.00,,,0.00,WeatherCatV1.02B4,2013-04-05 08:02:00,
2013-04-05 04:07:00,39.0,29.0,29.99,SSW,212,0.0,0.0,67,0.00,,,0.00,WeatherCatV1.02B4,2013-04-05 08:07:00,
2013-04-05 04:12:00,39.0,29.3,29.99,SSW,212,0.0,3.0,68,0.00,,,0.00,WeatherCatV1.02B4,2013-04-05 08:12:00,
2013-04-05 04:17:00,38.9,29.6,29.98,SSW,212,0.0,0.0,69,0.00,,,0.00,WeatherCatV1.02B4,2013-04-05 08:17:00,
2013-04-05 04:22:00,38.9,29.6,29.98,SSW,212,0.0,0.0,69,0.00,,,0.00,WeatherCatV1.02B4,2013-04-05 08:22:00,
2013-04-05 04:27:00,38.9,30.0,29.98,SSW,212,0.0,0.0,70,0.00,,,0.00,WeatherCatV1.02B4,2013-04-05 08:27:00,
2013-04-05 04:32:00,38.8,30.2,29.98,SSW,209,0.0,0.0,71,0.00,,,0.00,WeatherCatV1.02B4,2013-04-05 08:32:00,
2013-04-05 04:37:00,38.8,30.2,29.99,SSW,209,0.0,0.0,71,0.00,,,0.00,WeatherCatV1.02B4,2013-04-05 08:37:00,
2013-04-05 04:42:00,38.7,30.1,29.99,SSW,209,0.0,0.0,71,0.00,,,0.00,WeatherCatV1.02B4,2013-04-05 08:42:00,
2013-04-05 04:47:00,38.7,30.5,29.97,SSW,209,0.0,0.0,72,0.00,,,0.00,WeatherCatV1.02B4,2013-04-05 08:47:00,
2013-04-05 04:52:00,38.7,30.5,29.96,SSW,209,0.0,0.0,72,0.00,,,0.00,WeatherCatV1.02B4,2013-04-05 08:52:00,
2013-04-05 04:57:00,38.6,30.4,29.97,SSW,209,0.0,0.0,72,0.00,,,0.00,WeatherCatV1.02B4,2013-04-05 08:57:00,
2013-04-05 05:02:00,38.6,30.4,29.97,SSW,209,0.0,0.0,72,0.00,,,0.00,WeatherCatV1.02B4,2013-04-05 09:02:00,
2013-04-05 05:07:00,38.6,30.7,29.97,SSW,209,0.0,0.0,73,0.00,,,0.00,WeatherCatV1.02B4,2013-04-05 09:07:00,
2013-04-05 05:12:00,38.5,30.6,29.97,SSW,209,0.0,0.0,73,0.00,,,0.00,WeatherCatV1.02B4,2013-04-05 09:12:00,
2013-04-05 05:17:00,38.5,30.6,29.97,SSW,209,0.0,0.0,73,0.00,,,0.00,WeatherCatV1.02B4,2013-04-05 09:17:00,
2013-04-05 05:22:00,38.5,30.6,29.96,SSW,209,0.0,0.0,73,0.00,,,0.00,WeatherCatV1.02B4,2013-04-05 09:22:00,
2013-04-05 05:27:00,38.5,30.6,29.96,SSW,209,0.0,0.0,73,0.00,,,0.00,WeatherCatV1.02B4,2013-04-05 09:27:00,
2013-04-05 05:32:00,38.5,30.6,29.96,SSW,209,0.0,0.0,73,0.00,,,0.00,WeatherCatV1.02B4,2013-04-05 09:32:00,
2013-04-05 05:37:00,38.5,30.6,29.97,SSW,209,0.0,0.0,73,0.00,,,0.00,WeatherCatV1.02B4,2013-04-05 09:37:00,
2013-04-05 05:42:00,38.5,30.9,29.96,SSW,209,0.0,0.0,74,0.00,,,0.00,WeatherCatV1.02B4,2013-04-05 09:42:00,
2013-04-05 05:47:00,38.5,30.9,29.96,SSW,209,0.0,0.0,74,0.00,,,0.00,WeatherCatV1.02B4,2013-04-05 09:47:00,
2013-04-05 05:52:00,38.5,30.9,29.96,SSW,209,0.0,0.0,74,0.00,,,0.00,WeatherCatV1.02B4,2013-04-05 09:52:00,
2013-04-05 05:57:00,38.5,30.9,29.96,SSW,209,0.0,0.0,74,0.00,,,0.00,WeatherCatV1.02B4,2013-04-05 09:57:00,
2013-04-05 06:02:00,38.6,31.0,29.96,SSW,209,0.0,0.0,74,0.00,,,0.00,WeatherCatV1.02B4,2013-04-05 10:02:00,
2013-04-05 06:07:00,38.6,31.0,29.96,SSW,209,0.0,0.0,74,0.00,,,0.00,WeatherCatV1.02B4,2013-04-05 10:07:00,
2013-04-05 06:12:00,38.6,31.4,29.96,SSW,209,0.0,0.0,75,0.00,,,0.00,WeatherCatV1.02B4,2013-04-05 10:12:00,
2013-04-05 06:17:00,38.6,31.4,29.95,SSW,209,0.0,0.0,75,0.00,,,0.00,WeatherCatV1.02B4,2013-04-05 10:17:00,
2013-04-05 06:22:00,38.6,31.4,29.95,SSW,209,0.0,0.0,75,0.00,,,0.00,WeatherCatV1.02B4,2013-04-05 10:22:00,
2013-04-05 06:27:00,38.6,31.4,29.95,SSW,209,0.0,0.0,75,0.00,,,0.00,WeatherCatV1.02B4,2013-04-05 10:27:00,
2013-04-05 06:32:00,38.6,31.0,29.95,SSW,209,0.0,0.0,74,0.00,,,0.00,WeatherCatV1.02B4,2013-04-05 10:32:00,
2013-04-05 06:37:00,38.6,31.4,29.95,SSW,209,0.0,0.0,75,0.00,,,0.00,WeatherCatV1.02B4,2013-04-05 10:37:00,
2013-04-05 06:42:00,38.6,31.4,29.95,SSW,209,0.0,0.0,75,0.00,,,0.00,WeatherCatV1.02B4,2013-04-05 10:42:00,
2013-04-05 06:47:00,38.5,31.3,29.95,SSW,209,0.0,0.0,75,0.00,,,0.00,WeatherCatV1.02B4,2013-04-05 10:47:00,
2013-04-05 06:52:00,38.5,31.3,29.95,SSW,209,0.0,0.0,75,0.00,,,0.00,WeatherCatV1.02B4,2013-04-05 10:52:00,
2013-04-05 06:57:00,38.5,31.6,29.95,SSW,209,0.0,0.0,76,0.00,,,0.00,WeatherCatV1.02B4,2013-04-05 10:57:00,
2013-04-05 07:02:00,38.5,31.6,29.95,SSW,209,0.0,0.0,76,0.00,,,0.00,WeatherCatV1.02B4,2013-04-05 11:02:00,
2013-04-05 07:08:00,38.5,31.6,29.95,SSW,209,0.0,0.0,76,0.00,,,0.00,WeatherCatV1.02B4,2013-04-05 11:08:00,
2013-04-05 07:13:00,38.5,31.6,29.95,SSW,209,0.0,0.0,76,0.00,,,0.00,WeatherCatV1.02B4,2013-04-05 11:13:00,
2013-04-05 07:18:00,38.5,31.6,29.95,SSW,209,0.0,0.0,76,0.00,,,0.00,WeatherCatV1.02B4,2013-04-05 11:18:00,
2013-04-05 07:23:00,38.5,31.6,29.94,SSW,209,0.0,0.0,76,0.00,,,0.00,WeatherCatV1.02B4,2013-04-05 11:23:00,
2013-04-05 07:28:00,38.6,31.7,29.94,SSW,209,0.0,0.0,76,0.00,,,0.00,WeatherCatV1.02B4,2013-04-05 11:28:00,
2013-04-05 07:33:00,38.6,31.7,29.94,SSW,209,0.0,0.0,76,0.00,,,0.00,WeatherCatV1.02B4,2013-04-05 11:33:00,
2013-04-05 07:38:00,38.7,31.8,29.94,SSW,209,0.0,0.0,76,0.00,,,0.00,WeatherCatV1.02B4,2013-04-05 11:38:00,
2013-04-05 07:43:00,38.7,31.8,29.94,SSW,209,0.0,0.0,76,0.00,,,0.00,WeatherCatV1.02B4,2013-04-05 11:43:00,
2013-04-05 07:48:00,38.9,32.0,29.94,SSW,209,0.0,0.0,76,0.00,,,0.00,WeatherCatV1.02B4,2013-04-05 11:48:00,
2013-04-05 07:53:00,38.9,32.0,29.94,SSW,209,0.0,0.0,76,0.00,,,0.00,WeatherCatV1.02B4,2013-04-05 11:53:00,
2013-04-05 07:58:00,39.0,32.1,29.94,SSW,209,0.0,0.0,76,0.00,,,0.00,WeatherCatV1.02B4,2013-04-05 11:58:00,
2013-04-05 08:03:00,39.1,31.9,29.93,SSW,209,0.0,0.0,75,0.00,,,0.00,WeatherCatV1.02B4,2013-04-05 12:03:00,
2013-04-05 08:08:00,39.2,32.0,29.94,SSW,210,0.0,0.0,75,0.00,,,0.00,WeatherCatV1.02B4,2013-04-05 12:08:00,
2013-04-05 08:13:00,39.3,31.7,29.94,SSW,210,0.0,0.0,74,0.00,,,0.00,WeatherCatV1.02B4,2013-04-05 12:13:00,
2013-04-05 08:18:00,39.3,31.4,29.94,SSW,210,0.0,0.0,73,0.00,,,0.00,WeatherCatV1.02B4,2013-04-05 12:18:00,
2013-04-05 08:23:00,39.2,31.3,29.94,SSW,210,0.0,0.0,73,0.00,,,0.00,WeatherCatV1.02B4,2013-04-05 12:23:00,
2013-04-05 08:28:00,39.4,31.5,29.93,SSW,213,0.0,0.0,73,0.00,,,0.00,WeatherCatV1.02B4,2013-04-05 12:28:00,
2013-04-05 08:33:00,39.7,31.8,29.93,NNW,331,0.0,0.0,73,0.00,,,0.00,WeatherCatV1.02B4,2013-04-05 12:33:00,
2013-04-05 08:38:00,40.0,32.1,29.92,NNW,331,0.0,0.0,73,0.00,,,0.00,WeatherCatV1.02B4,2013-04-05 12:38:00,
2013-04-05 08:43:00,40.3,32.3,29.92,NNW,331,0.0,2.0,73,0.00,,,0.00,WeatherCatV1.02B4,2013-04-05 12:43:00,
2013-04-05 08:48:00,40.5,32.2,29.92,NNW,331,0.0,0.0,72,0.00,,,0.00,WeatherCatV1.02B4,2013-04-05 12:48:00,
2013-04-05 08:53:00,40.7,32.0,29.92,NNW,331,0.0,0.0,71,0.00,,,0.00,WeatherCatV1.02B4,2013-04-05 12:53:00,
2013-04-05 08:58:00,40.9,31.9,29.92,NNW,342,0.0,4.0,70,0.00,,,0.00,WeatherCatV1.02B4,2013-04-05 12:58:00,
2013-04-05 09:03:00,41.2,31.8,29.91,NNW,342,0.0,0.0,69,0.00,,,0.00,WeatherCatV1.02B4,2013-04-05 13:03:00,
2013-04-05 09:08:00,41.6,32.2,29.91,NNW,342,0.0,0.0,69,0.00,,,0.00,WeatherCatV1.02B4,2013-04-05 13:08:00,
2013-04-05 09:13:00,42.0,31.5,29.91,NE,44,5.0,5.0,66,0.00,,,0.00,WeatherCatV1.02B4,2013-04-05 13:13:00,
2013-04-05 09:18:00,42.4,31.1,29.90,NE,34,0.0,2.0,64,0.00,,,0.00,WeatherCatV1.02B4,2013-04-05 13:18:00,
2013-04-05 09:23:00,42.9,31.2,29.90,NNE,33,2.0,2.0,63,0.00,,,0.00,WeatherCatV1.02B4,2013-04-05 13:23:00,
2013-04-05 09:28:00,43.5,30.5,29.90,NNE,26,3.0,3.0,60,0.00,,,0.00,WeatherCatV1.02B4,2013-04-05 13:28:00,
2013-04-05 09:33:00,44.1,29.9,29.90,NE,39,0.0,3.0,57,0.00,,,0.00,WeatherCatV1.02B4,2013-04-05 13:33:00,
2013-04-05 09:38:00,44.6,30.3,29.90,NNE,21,0.0,0.0,57,0.00,,,0.00,WeatherCatV1.02B4,2013-04-05 13:38:00,
2013-04-05 09:43:00,45.2,30.4,29.89,NNE,20,0.0,0.0,56,0.00,,,0.00,WeatherCatV1.02B4,2013-04-05 13:43:00,
2013-04-05 09:48:00,45.8,30.6,29.89,NW,325,0.0,2.0,55,0.00,,,0.00,WeatherCatV1.02B4,2013-04-05 13:48:00,
2013-04-05 09:53:00,46.3,30.1,29.89,NNW,345,0.0,4.0,53,0.00,,,0.00,WeatherCatV1.02B4,2013-04-05 13:53:00,
2013-04-05 09:58:00,46.4,30.2,29.90,North,0,0.0,3.0,53,0.00,,,0.00,WeatherCatV1.02B4,2013-04-05 13:58:00,
2013-04-05 10:03:00,46.8,30.1,29.90,NNW,328,0.0,4.0,52,0.00,,,0.00,WeatherCatV1.02B4,2013-04-05 14:03:00,
2013-04-05 10:08:00,46.9,30.2,29.89,North,355,0.0,0.0,52,0.00,,,0.00,WeatherCatV1.02B4,2013-04-05 14:08:00,
2013-04-05 10:13:00,47.4,29.7,29.89,North,359,3.0,5.0,50,0.00,,,0.00,WeatherCatV1.02B4,2013-04-05 14:13:00,
2013-04-05 10:18:00,47.7,29.5,29.89,NW,309,1.0,5.0,49,0.00,,,0.00,WeatherCatV1.02B4,2013-04-05 14:18:00,
2013-04-05 10:23:00,47.9,28.7,29.88,NW,316,0.0,0.0,47,0.00,,,0.00,WeatherCatV1.02B4,2013-04-05 14:23:00,
2013-04-05 10:28:00,48.1,28.3,29.88,NW,315,0.0,0.0,46,0.00,,,0.00,WeatherCatV1.02B4,2013-04-05 14:28:00,
2013-04-05 10:33:00,47.9,28.1,29.89,NNE,12,0.0,0.0,46,0.00,,,0.00,WeatherCatV1.02B4,2013-04-05 14:33:00,
2013-04-05 10:38:00,48.0,28.2,29.89,NNW,341,0.0,0.0,46,0.00,,,0.00,WeatherCatV1.02B4,2013-04-05 14:38:00,
2013-04-05 10:43:00,48.3,28.5,29.89,North,353,3.0,4.0,46,0.00,,,0.00,WeatherCatV1.02B4,2013-04-05 14:43:00,
2013-04-05 10:48:00,48.8,27.9,29.88,WNW,283,0.0,5.0,44,0.00,,,0.00,WeatherCatV1.02B4,2013-04-05 14:48:00,
2013-04-05 10:53:00,49.3,28.3,29.88,WNW,290,5.0,5.0,44,0.00,,,0.00,WeatherCatV1.02B4,2013-04-05 14:53:00,
2013-04-05 10:58:00,49.6,28.6,29.89,North,353,0.0,3.0,44,0.00,,,0.00,WeatherCatV1.02B4,2013-04-05 14:58:00,
2013-04-05 11:03:00,49.9,28.3,29.88,North,0,0.0,2.0,43,0.00,,,0.00,WeatherCatV1.02B4,2013-04-05 15:03:00,
2013-04-05 11:08:00,50.1,27.9,29.88,WNW,303,0.0,5.0,42,0.00,,,0.00,WeatherCatV1.02B4,2013-04-05 15:08:00,
2013-04-05 11:13:00,50.5,27.7,29.88,North,356,4.0,6.0,41,0.00,,,0.00,WeatherCatV1.02B4,2013-04-05 15:13:00,
2013-04-05 11:18:00,51.0,28.7,29.88,North,1,4.0,10.0,42,0.00,,,0.00,WeatherCatV1.02B4,2013-04-05 15:18:00,
2013-04-05 11:23:00,51.2,27.7,29.88,North,349,0.0,5.0,40,0.00,,,0.00,WeatherCatV1.02B4,2013-04-05 15:23:00,
2013-04-05 11:28:00,51.5,28.0,29.87,North,0,0.0,5.0,40,0.00,,,0.00,WeatherCatV1.02B4,2013-04-05 15:28:00,
2013-04-05 11:33:00,51.8,27.0,29.87,North,358,2.0,7.0,38,0.00,,,0.00,WeatherCatV1.02B4,2013-04-05 15:33:00,
2013-04-05 11:38:00,52.1,26.6,29.86,South,174,5.0,8.0,37,0.00,,,0.00,WeatherCatV1.02B4,2013-04-05 15:38:00,
2013-04-05 11:43:00,52.8,25.9,29.86,North,349,5.0,6.0,35,0.00,,,0.00,WeatherCatV1.02B4,2013-04-05 15:43:00,
2013-04-05 11:48:00,53.2,24.9,29.86,NW,308,7.0,7.0,33,0.00,,,0.00,WeatherCatV1.02B4,2013-04-05 15:48:00,
2013-04-05 11:53:00,53.5,24.4,29.86,North,0,3.0,6.0,32,0.00,,,0.00,WeatherCatV1.02B4,2013-04-05 15:53:00,
2013-04-05 11:58:00,53.8,25.4,29.86,NW,314,1.0,6.0,33,0.00,,,0.00,WeatherCatV1.02B4,2013-04-05 15:58:00,
2013-04-05 12:03:00,54.2,24.2,29.85,NNW,338,4.0,7.0,31,0.00,,,0.00,WeatherCatV1.02B4,2013-04-05 16:03:00,
2013-04-05 12:08:00,54.5,23.7,29.85,NW,308,2.0,9.0,30,0.00,,,0.00,WeatherCatV1.02B4,2013-04-05 16:08:00,
2013-04-05 12:13:00,54.7,22.2,29.85,WNW,283,4.0,8.0,28,0.00,,,0.00,WeatherCatV1.02B4,2013-04-05 16:13:00,
2013-04-05 12:18:00,55.0,21.6,29.85,NW,318,3.0,9.0,27,0.00,,,0.00,WeatherCatV1.02B4,2013-04-05 16:18:00,
2013-04-05 12:23:00,55.1,21.7,29.84,NW,326,2.0,6.0,27,0.00,,,0.00,WeatherCatV1.02B4,2013-04-05 16:23:00,
2013-04-05 12:28:00,55.3,21.9,29.84,North,6,1.0,2.0,27,0.00,,,0.00,WeatherCatV1.02B4,2013-04-05 16:28:00,
2013-04-05 12:33:00,55.7,22.2,29.84,NNW,332,1.0,5.0,27,0.00,,,0.00,WeatherCatV1.02B4,2013-04-05 16:33:00,
2013-04-05 12:39:00,56.0,22.5,29.83,North,354,3.0,5.0,27,0.00,,,0.00,WeatherCatV1.02B4,2013-04-05 16:39:00,
2013-04-05 12:44:00,56.7,23.1,29.83,WNW,292,2.0,5.0,27,0.00,,,0.00,WeatherCatV1.02B4,2013-04-05 16:44:00,
2013-04-05 12:49:00,56.9,21.5,29.82,North,352,5.0,7.0,25,0.00,,,0.00,WeatherCatV1.02B4,2013-04-05 16:49:00,
2013-04-05 12:54:00,57.3,22.7,29.82,North,354,4.0,7.0,26,0.00,,,0.00,WeatherCatV1.02B4,2013-04-05 16:54:00,
2013-04-05 12:59:00,57.4,21.9,29.82,NW,320,4.0,7.0,25,0.00,,,0.00,WeatherCatV1.02B4,2013-04-05 16:59:00,
2013-04-05 13:04:00,57.5,21.0,29.82,North,354,8.0,11.0,24,0.00,,,0.00,WeatherCatV1.02B4,2013-04-05 17:04:00,
2013-04-05 13:09:00,57.7,21.2,29.81,NNW,333,3.0,5.0,24,0.00,,,0.00,WeatherCatV1.02B4,2013-04-05 17:09:00,
2013-04-05 13:14:00,57.8,21.3,29.81,North,1,6.0,10.0,24,0.00,,,0.00,WeatherCatV1.02B4,2013-04-05 17:14:00,
2013-04-05 13:19:00,58.0,20.4,29.81,NNW,344,4.0,6.0,23,0.00,,,0.00,WeatherCatV1.02B4,2013-04-05 17:19:00,
2013-04-05 13:24:00,58.5,20.8,29.81,NW,319,6.0,10.0,23,0.00,,,0.00,WeatherCatV1.02B4,2013-04-05 17:24:00,
2013-04-05 13:29:00,58.7,21.0,29.81,NNW,342,0.0,6.0,23,0.00,,,0.00,WeatherCatV1.02B4,2013-04-05 17:29:00,
2013-04-05 13:34:00,58.9,21.2,29.81,West,278,3.0,6.0,23,0.00,,,0.00,WeatherCatV1.02B4,2013-04-05 17:34:00,
2013-04-05 13:39:00,59.1,20.3,29.80,NNW,345,0.0,6.0,22,0.00,,,0.00,WeatherCatV1.02B4,2013-04-05 17:39:00,
2013-04-05 13:44:00,59.1,22.4,29.80,NNW,339,0.0,7.0,24,0.00,,,0.00,WeatherCatV1.02B4,2013-04-05 17:44:00,
2013-04-05 13:49:00,59.3,20.5,29.80,NW,314,0.0,3.0,22,0.00,,,0.00,WeatherCatV1.02B4,2013-04-05 17:49:00,
2013-04-05 13:54:00,59.4,22.6,29.79,North,5,3.0,8.0,24,0.00,,,0.00,WeatherCatV1.02B4,2013-04-05 17:54:00,
2013-04-05 13:59:00,59.7,22.9,29.80,NW,307,4.0,4.0,24,0.00,,,0.00,WeatherCatV1.02B4,2013-04-05 17:59:00,
2013-04-05 14:04:00,60.1,21.1,29.79,NNE,16,0.0,3.0,22,0.00,,,0.00,WeatherCatV1.02B4,2013-04-05 18:04:00,
2013-04-05 14:09:00,60.7,22.7,29.79,North,358,2.0,7.0,23,0.00,,,0.00,WeatherCatV1.02B4,2013-04-05 18:09:00,
2013-04-05 14:14:00,60.8,20.6,29.79,NNE,19,5.0,6.0,21,0.00,,,0.00,WeatherCatV1.02B4,2013-04-05 18:14:00,
2013-04-05 14:19:00,60.9,22.9,29.79,NW,323,8.0,8.0,23,0.00,,,0.00,WeatherCatV1.02B4,2013-04-05 18:19:00,
2013-04-05 14:24:00,60.9,20.7,29.78,NW,325,5.0,7.0,21,0.00,,,0.00,WeatherCatV1.02B4,2013-04-05 18:24:00,
2013-04-05 14:29:00,60.9,21.8,29.78,NW,322,0.0,2.0,22,0.00,,,0.00,WeatherCatV1.02B4,2013-04-05 18:29:00,
2013-04-05 14:34:00,61.2,21.0,29.78,NW,315,0.0,7.0,21,0.00,,,0.00,WeatherCatV1.02B4,2013-04-05 18:34:00,
2013-04-05 14:39:00,61.5,21.2,29.77,NW,308,4.0,7.0,21,0.00,,,0.00,WeatherCatV1.02B4,2013-04-05 18:39:00,
2013-04-05 14:44:00,61.9,21.5,29.78,NW,305,5.0,8.0,21,0.00,,,0.00,WeatherCatV1.02B4,2013-04-05 18:44:00,
2013-04-05 14:49:00,61.9,22.6,29.77,NW,326,2.0,6.0,22,0.00,,,0.00,WeatherCatV1.02B4,2013-04-05 18:49:00,
2013-04-05 14:54:00,62.0,20.5,29.77,West,269,5.0,10.0,20,0.00,,,0.00,WeatherCatV1.02B4,2013-04-05 18:54:00,
2013-04-05 14:59:00,62.0,21.6,29.77,NW,325,1.0,5.0,21,0.00,,,0.00,WeatherCatV1.02B4,2013-04-05 18:59:00,
2013-04-05 15:04:00,62.1,21.7,29.77,WNW,303,4.0,4.0,21,0.00,,,0.00,WeatherCatV1.02B4,2013-04-05 19:04:00,
2013-04-05 15:09:00,62.3,20.7,29.77,WSW,251,2.0,8.0,20,0.00,,,0.00,WeatherCatV1.02B4,2013-04-05 19:09:00,
2013-04-05 15:15:00,62.8,22.3,29.77,NW,325,3.0,7.0,21,0.00,,,0.00,WeatherCatV1.02B4,2013-04-05 19:15:00,
2013-04-05 15:20:00,62.8,23.4,29.77,NNW,345,4.0,5.0,22,0.00,,,0.00,WeatherCatV1.02B4,2013-04-05 19:20:00,
2013-04-05 15:25:00,63.0,22.5,29.77,NW,320,3.0,3.0,21,0.00,,,0.00,WeatherCatV1.02B4,2013-04-05 19:25:00,
2013-04-05 15:30:00,63.3,23.8,29.77,West,271,6.0,9.0,22,0.00,,,0.00,WeatherCatV1.02B4,2013-04-05 19:30:00,
2013-04-05 15:35:00,63.4,25.0,29.76,NNW,336,5.0,5.0,23,0.00,,,0.00,WeatherCatV1.02B4,2013-04-05 19:35:00,
2013-04-05 15:40:00,63.2,23.7,29.76,NW,306,0.0,6.0,22,0.00,,,0.00,WeatherCatV1.02B4,2013-04-05 19:40:00,
2013-04-05 15:45:00,63.4,26.0,29.76,NW,308,5.0,7.0,24,0.00,,,0.00,WeatherCatV1.02B4,2013-04-05 19:45:00,
2013-04-05 15:50:00,63.2,24.8,29.77,West,273,4.0,10.0,23,0.00,,,0.00,WeatherCatV1.02B4,2013-04-05 19:50:00,
2013-04-05 15:55:00,62.8,25.5,29.77,NW,322,7.0,8.0,24,0.00,,,0.00,WeatherCatV1.02B4,2013-04-05 19:55:00,
2013-04-05 16:00:00,62.9,24.5,29.77,West,279,5.0,8.0,23,0.00,,,0.00,WeatherCatV1.02B4,2013-04-05 20:00:00,
2013-04-05 16:05:00,62.9,24.5,29.77,WNW,289,3.0,5.0,23,0.00,,,0.00,WeatherCatV1.02B4,2013-04-05 20:05:00,
2013-04-05 16:10:00,62.3,25.1,29.77,West,273,5.0,10.0,24,0.00,,,0.00,WeatherCatV1.02B4,2013-04-05 20:10:00,
2013-04-05 16:15:00,62.3,24.0,29.77,West,281,6.0,9.0,23,0.00,,,0.00,WeatherCatV1.02B4,2013-04-05 20:15:00,
2013-04-05 16:20:00,62.4,25.1,29.77,NNW,339,6.0,6.0,24,0.00,,,0.00,WeatherCatV1.02B4,2013-04-05 20:20:00,
2013-04-05 16:25:00,62.2,24.0,29.77,WNW,294,7.0,12.0,23,0.00,,,0.00,WeatherCatV1.02B4,2013-04-05 20:25:00,
2013-04-05 16:30:00,62.5,24.2,29.77,NW,315,1.0,8.0,23,0.00,,,0.00,WeatherCatV1.02B4,2013-04-05 20:30:00,
2013-04-05 16:35:00,62.6,23.2,29.77,WNW,300,3.0,12.0,22,0.00,,,0.00,WeatherCatV1.02B4,2013-04-05 20:35:00,
2013-04-05 16:40:00,62.4,24.1,29.78,NNW,331,5.0,7.0,23,0.00,,,0.00,WeatherCatV1.02B4,2013-04-05 20:40:00,
2013-04-05 16:45:00,61.9,22.6,29.78,WNW,297,1.0,10.0,22,0.00,,,0.00,WeatherCatV1.02B4,2013-04-05 20:45:00,
2013-04-05 16:50:00,61.9,22.6,29.78,West,263,8.0,16.0,22,0.00,,,0.00,WeatherCatV1.02B4,2013-04-05 20:50:00,
2013-04-05 16:55:00,62.2,21.8,29.78,West,279,5.0,7.0,21,0.00,,,0.00,WeatherCatV1.02B4,2013-04-05 20:55:00,
2013-04-05 17:00:00,62.0,21.6,29.78,NW,314,3.0,8.0,21,0.00,,,0.00,WeatherCatV1.02B4,2013-04-05 21:00:00,
2013-04-05 17:05:00,62.1,21.7,29.79,WNW,303,0.0,6.0,21,0.00,,,0.00,WeatherCatV1.02B4,2013-04-05 21:05:00,
2013-04-05 17:10:00,62.4,23.1,29.79,WNW,291,3.0,3.0,22,0.00,,,0.00,WeatherCatV1.02B4,2013-04-05 21:10:00,
2013-04-05 17:15:00,62.4,22.0,29.79,NW,321,2.0,4.0,21,0.00,,,0.00,WeatherCatV1.02B4,2013-04-05 21:15:00,
2013-04-05 17:20:00,62.2,20.6,29.79,NNW,344,4.0,10.0,20,0.00,,,0.00,WeatherCatV1.02B4,2013-04-05 21:20:00,
2013-04-05 17:25:00,61.9,21.5,29.80,NNW,332,4.0,10.0,21,0.00,,,0.00,WeatherCatV1.02B4,2013-04-05 21:25:00,
2013-04-05 17:30:00,61.4,21.1,29.80,NW,318,0.0,4.0,21,0.00,,,0.00,WeatherCatV1.02B4,2013-04-05 21:30:00,
2013-04-05 17:35:00,61.0,20.8,29.81,NW,307,3.0,9.0,21,0.00,,,0.00,WeatherCatV1.02B4,2013-04-05 21:35:00,
2013-04-05 17:40:00,60.6,20.5,29.81,NW,320,5.0,6.0,21,0.00,,,0.00,WeatherCatV1.02B4,2013-04-05 21:40:00,
2013-04-05 17:45:00,60.2,20.1,29.81,North,355,0.0,4.0,21,0.00,,,0.00,WeatherCatV1.02B4,2013-04-05 21:45:00,
2013-04-05 17:50:00,60.1,20.0,29.81,WNW,298,4.0,6.0,21,0.00,,,0.00,WeatherCatV1.02B4,2013-04-05 21:50:00,
2013-04-05 17:55:00,60.0,20.0,29.82,NNW,333,1.0,4.0,21,0.00,,,0.00,WeatherCatV1.02B4,2013-04-05 21:55:00,
2013-04-05 18:00:00,59.9,19.9,29.82,NNW,328,6.0,7.0,21,0.00,,,0.00,WeatherCatV1.02B4,2013-04-05 22:00:00,
2013-04-05 18:05:00,59.8,19.8,29.82,WNW,302,0.0,4.0,21,0.00,,,0.00,WeatherCatV1.02B4,2013-04-05 22:05:00,
2013-04-05 18:10:00,59.7,19.7,29.82,NNW,335,0.0,5.0,21,0.00,,,0.00,WeatherCatV1.02B4,2013-04-05 22:10:00,
2013-04-05 18:15:00,59.6,19.6,29.83,WNW,303,4.0,9.0,21,0.00,,,0.00,WeatherCatV1.02B4,2013-04-05 22:15:00,
2013-04-05 18:20:00,59.3,18.2,29.83,NW,323,4.0,8.0,20,0.00,,,0.00,WeatherCatV1.02B4,2013-04-05 22:20:00,
2013-04-05 18:25:00,59.0,19.1,29.83,West,265,0.0,5.0,21,0.00,,,0.00,WeatherCatV1.02B4,2013-04-05 22:25:00,
2013-04-05 18:30:00,58.8,19.0,29.83,NW,314,1.0,6.0,21,0.00,,,0.00,WeatherCatV1.02B4,2013-04-05 22:30:00,
2013-04-05 18:35:00,58.6,18.8,29.83,NW,310,0.0,5.0,21,0.00,,,0.00,WeatherCatV1.02B4,2013-04-05 22:35:00,
2013-04-05 18:40:00,58.5,18.7,29.83,North,349,3.0,10.0,21,0.00,,,0.00,WeatherCatV1.02B4,2013-04-05 22:40:00,
2013-04-05 18:45:00,58.3,18.5,29.84,NNW,333,3.0,5.0,21,0.00,,,0.00,WeatherCatV1.02B4,2013-04-05 22:45:00,
2013-04-05 18:50:00,58.1,18.4,29.84,NW,321,1.0,4.0,21,0.00,,,0.00,WeatherCatV1.02B4,2013-04-05 22:50:00,
2013-04-05 18:55:00,57.9,18.2,29.84,WNW,302,5.0,8.0,21,0.00,,,0.00,WeatherCatV1.02B4,2013-04-05 22:55:00,
2013-04-05 19:00:00,57.7,18.0,29.84,NW,319,2.0,2.0,21,0.00,,,0.00,WeatherCatV1.02B4,2013-04-05 23:00:00,
2013-04-05 19:05:00,57.5,17.9,29.84,WSW,252,0.0,7.0,21,0.00,,,0.00,WeatherCatV1.02B4,2013-04-05 23:05:00,
2013-04-05 19:10:00,57.3,17.7,29.84,West,270,1.0,5.0,21,0.00,,,0.00,WeatherCatV1.02B4,2013-04-05 23:10:00,
2013-04-05 19:15:00,57.0,17.5,29.85,NW,325,0.0,0.0,21,0.00,,,0.00,WeatherCatV1.02B4,2013-04-05 23:15:00,
2013-04-05 19:20:00,56.8,17.3,29.85,NW,318,2.0,8.0,21,0.00,,,0.00,WeatherCatV1.02B4,2013-04-05 23:20:00,
2013-04-05 19:25:00,56.8,17.3,29.85,NNW,347,5.0,5.0,21,0.00,,,0.00,WeatherCatV1.02B4,2013-04-05 23:25:00,
2013-04-05 19:30:00,56.6,17.1,29.86,NW,305,0.0,3.0,21,0.00,,,0.00,WeatherCatV1.02B4,2013-04-05 23:30:00,
2013-04-05 19:35:00,56.4,17.0,29.86,NNW,344,0.0,3.0,21,0.00,,,0.00,WeatherCatV1.02B4,2013-04-05 23:35:00,
2013-04-05 19:40:00,56.1,15.6,29.86,NW,307,3.0,6.0,20,0.00,,,0.00,WeatherCatV1.02B4,2013-04-05 23:40:00,
2013-04-05 19:45:00,55.8,15.3,29.86,NNW,332,0.0,9.0,20,0.00,,,0.00,WeatherCatV1.02B4,2013-04-05 23:45:00,
2013-04-05 19:50:00,55.7,16.4,29.86,NW,324,1.0,2.0,21,0.00,,,0.00,WeatherCatV1.02B4,2013-04-05 23:50:00,
2013-04-05 19:55:00,55.5,15.1,29.87,NNW,338,0.0,4.0,20,0.00,,,0.00,WeatherCatV1.02B4,2013-04-05 23:55:00,
2013-04-05 20:00:00,55.3,14.9,29.87,NNW,342,0.0,6.0,20,0.00,,,0.00,WeatherCatV1.02B4,2013-04-06 00:00:00,
2013-04-05 20:05:00,55.1,15.9,29.87,NNW,342,0.0,0.0,21,0.00,,,0.00,WeatherCatV1.02B4,2013-04-06 00:05:00,
2013-04-05 20:10:00,54.8,15.6,29.87,NW,315,0.0,5.0,21,0.00,,,0.00,WeatherCatV1.02B4,2013-04-06 00:10:00,
2013-04-05 20:15:00,54.5,15.4,29.88,NW,324,0.0,2.0,21,0.00,,,0.00,WeatherCatV1.02B4,2013-04-06 00:15:00,
2013-04-05 20:20:00,54.2,16.2,29.88,NW,320,0.0,0.0,22,0.00,,,0.00,WeatherCatV1.02B4,2013-04-06 00:20:00,
2013-04-05 20:25:00,53.9,15.9,29.88,NW,308,0.0,0.0,22,0.00,,,0.00,WeatherCatV1.02B4,2013-04-06 00:25:00,
2013-04-05 20:30:00,53.6,16.7,29.89,NW,309,0.0,0.0,23,0.00,,,0.00,WeatherCatV1.02B4,2013-04-06 00:30:00,
2013-04-05 20:35:00,53.3,17.4,29.89,NW,312,0.0,0.0,24,0.00,,,0.00,WeatherCatV1.02B4,2013-04-06 00:35:00,
2013-04-05 20:40:00,53.0,16.2,29.90,NW,317,0.0,0.0,23,0.00,,,0.00,WeatherCatV1.02B4,2013-04-06 00:40:00,
2013-04-05 20:45:00,52.8,17.0,29.90,NW,318,0.0,0.0,24,0.00,,,0.00,WeatherCatV1.02B4,2013-04-06 00:45:00,
2013-04-05 20:50:00,52.4,18.5,29.91,NW,309,0.0,2.0,26,0.00,,,0.00,WeatherCatV1.02B4,2013-04-06 00:50:00,
2013-04-05 20:55:00,51.9,16.3,29.91,NW,308,0.0,0.0,24,0.00,,,0.00,WeatherCatV1.02B4,2013-04-06 00:55:00,
2013-04-05 21:00:00,51.7,16.1,29.92,NNW,327,2.0,4.0,24,0.00,,,0.00,WeatherCatV1.02B4,2013-04-06 01:00:00,
2013-04-05 21:05:00,51.8,15.2,29.92,North,359,0.0,5.0,23,0.00,,,0.00,WeatherCatV1.02B4,2013-04-06 01:05:00,
2013-04-05 21:10:00,52.1,16.4,29.93,North,350,0.0,1.0,24,0.00,,,0.00,WeatherCatV1.02B4,2013-04-06 01:10:00,
2013-04-05 21:15:00,52.1,16.4,29.93,North,358,5.0,5.0,24,0.00,,,0.00,WeatherCatV1.02B4,2013-04-06 01:15:00,
2013-04-05 21:20:00,52.1,16.4,29.94,NNE,13,0.0,4.0,24,0.00,,,0.00,WeatherCatV1.02B4,2013-04-06 01:20:00,
2013-04-05 21:25:00,51.9,17.2,29.94,NNE,30,0.0,3.0,25,0.00,,,0.00,WeatherCatV1.02B4,2013-04-06 01:25:00,
2013-04-05 21:30:00,51.7,17.0,29.95,North,3,7.0,8.0,25,0.00,,,0.00,WeatherCatV1.02B4,2013-04-06 01:30:00,
2013-04-05 21:35:00,51.6,16.9,29.95,NNW,338,2.0,5.0,25,0.00,,,0.00,WeatherCatV1.02B4,2013-04-06 01:35:00,
2013-04-05 21:40:00,51.5,17.8,29.95,North,349,3.0,10.0,26,0.00,,,0.00,WeatherCatV1.02B4,2013-04-06 01:40:00,
2013-04-05 21:45:00,51.3,17.6,29.96,North,350,0.0,0.0,26,0.00,,,0.00,WeatherCatV1.02B4,2013-04-06 01:45:00,
2013-04-05 21:50:00,50.9,18.1,29.96,NNE,23,0.0,4.0,27,0.00,,,0.00,WeatherCatV1.02B4,2013-04-06 01:50:00,
2013-04-05 21:55:00,50.6,17.9,29.97,NNE,22,0.0,10.0,27,0.00,,,0.00,WeatherCatV1.02B4,2013-04-06 01:55:00,
2013-04-05 22:00:00,50.3,17.6,29.98,NW,320,3.0,7.0,27,0.00,,,0.00,WeatherCatV1.02B4,2013-04-06 02:00:00,
2013-04-05 22:05:00,49.9,17.3,29.98,North,355,0.0,5.0,27,0.00,,,0.00,WeatherCatV1.02B4,2013-04-06 02:05:00,
2013-04-05 22:11:00,49.6,17.9,29.98,NNW,327,3.0,7.0,28,0.00,,,0.00,WeatherCatV1.02B4,2013-04-06 02:11:00,
2013-04-05 22:16:00,49.2,18.3,29.98,NW,323,3.0,11.0,29,0.00,,,0.00,WeatherCatV1.02B4,2013-04-06 02:16:00,
2013-04-05 22:21:00,48.8,18.8,29.99,North,2,2.0,8.0,30,0.00,,,0.00,WeatherCatV1.02B4,2013-04-06 02:21:00,
2013-04-05 22:26:00,48.4,19.2,29.99,North,2,0.0,5.0,31,0.00,,,0.00,WeatherCatV1.02B4,2013-04-06 02:26:00,
2013-04-05 22:31:00,48.0,19.6,30.00,North,0,0.0,8.0,32,0.00,,,0.00,WeatherCatV1.02B4,2013-04-06 02:31:00,
2013-04-05 22:36:00,47.6,18.5,30.00,NW,323,0.0,9.0,31,0.00,,,0.00,WeatherCatV1.02B4,2013-04-06 02:36:00,
2013-04-05 22:41:00,47.3,19.7,30.00,North,0,6.0,8.0,33,0.00,,,0.00,WeatherCatV1.02B4,2013-04-06 02:41:00,
2013-04-05 22:46:00,46.9,19.3,30.00,North,354,4.0,5.0,33,0.00,,,0.00,WeatherCatV1.02B4,2013-04-06 02:46:00,
2013-04-05 22:51:00,46.5,19.0,30.00,NNE,13,4.0,8.0,33,0.00,,,0.00,WeatherCatV1.02B4,2013-04-06 02:51:00,
2013-04-05 22:56:00,46.2,18.7,30.00,NW,325,2.0,7.0,33,0.00,,,0.00,WeatherCatV1.02B4,2013-04-06 02:56:00,
2013-04-05 23:01:00,45.9,18.4,30.01,North,0,5.0,6.0,33,0.00,,,0.00,WeatherCatV1.02B4,2013-04-06 03:01:00,
2013-04-05 23:06:00,45.7,19.0,30.01,NNW,341,0.0,0.0,34,0.00,,,0.00,WeatherCatV1.02B4,2013-04-06 03:06:00,
2013-04-05 23:11:00,45.4,18.7,30.01,NW,313,0.0,8.0,34,0.00,,,0.00,WeatherCatV1.02B4,2013-04-06 03:11:00,
2013-04-05 23:16:00,45.2,19.2,30.02,North,354,2.0,5.0,35,0.00,,,0.00,WeatherCatV1.02B4,2013-04-06 03:16:00,
2013-04-05 23:21:00,44.8,18.2,30.02,NNW,334,5.0,7.0,34,0.00,,,0.00,WeatherCatV1.02B4,2013-04-06 03:21:00,
2013-04-05 23:26:00,44.5,18.6,30.02,West,268,4.0,5.0,35,0.00,,,0.00,WeatherCatV1.02B4,2013-04-06 03:26:00,
2013-04-05 23:31:00,44.2,18.3,30.02,WNW,294,0.0,4.0,35,0.00,,,0.00,WeatherCatV1.02B4,2013-04-06 03:31:00,
2013-04-05 23:36:00,43.9,18.0,30.02,NNW,334,0.0,8.0,35,0.00,,,0.00,WeatherCatV1.02B4,2013-04-06 03:36:00,
2013-04-05 23:41:00,43.7,17.9,30.02,North,355,3.0,7.0,35,0.00,,,0.00,WeatherCatV1.02B4,2013-04-06 03:41:00,
2013-04-05 23:46:00,43.5,17.7,30.03,WNW,295,0.0,0.0,35,0.00,,,0.00,WeatherCatV1.02B4,2013-04-06 03:46:00,
2013-04-05 23:51:00,43.3,17.5,30.03,North,353,5.0,5.0,35,0.00,,,0.00,WeatherCatV1.02B4,2013-04-06 03:51:00,
2013-04-05 23:56:00,43.1,18.0,30.04,NNW,329,3.0,6.0,36,0.00,,,0.00,WeatherCatV1.02B4,2013-04-06 03:56:00,